Location: *
(51.2833°S, 178.4333°E)
Time: 05:20:04
(UTC+00:00)

Daily predictions for brighter satellites

Satellite Brightness Start Highest point End
(mag) Time Altitude Azimuth Time Altitude Azimuth Time Altitude Azimuth
Cosmos 2237 4.4 04:36:19 10° NNW 04:41:57 61° ENE 04:47:38 10° SE
STARLINK-1339 3.4 04:40:53 10° W 04:44:34 66° S 04:48:16 10° E
Cosmos 1408 Rocket 3.6 04:40:18 10° N 04:44:47 70° E 04:49:20 10° SSE
Cosmos 2366 rocket 4.5 04:38:32 10° NNW 04:44:50 68° WSW 04:51:09 10° S
Meteor 1-26 Rocket 4.3 04:40:07 10° SSW 04:45:59 83° ESE 04:51:35 10° NNE
STARLINK-22 3.7 04:43:34 10° NW 04:46:43 46° NNE 04:49:54 10° ESE
STARLINK-1377 3.4 04:43:13 10° W 04:46:54 66° S 04:50:34 10° E
Cosmos 2123 Rocket 4.2 04:42:36 10° S 04:48:43 51° ESE 04:54:48 10° NNE
STARLINK-1353 3.4 04:45:55 10° WSW 04:49:35 67° S 04:53:15 10° E
STARLINK 1040 2.4 04:47:11 10° WNW 04:49:52 84° SSW 04:52:33 10° ESE
STARLINK-1320 3.0 04:47:53 10° WSW 04:51:05 65° S 04:54:17 10° E
STARLINK-1322 3.0 04:48:12 10° WSW 04:51:24 65° S 04:54:36 10° E
STARLINK-1324 3.0 04:48:33 10° WSW 04:51:45 65° S 04:54:57 10° E
Cosmos 1812 4.0 04:48:49 10° SSE 04:51:50 20° ESE 04:54:49 10° ENE
STARLINK-1294 3.0 04:48:55 10° WSW 04:52:06 65° S 04:55:15 10° E
STARLINK-80 3.9 04:48:32 10° NW 04:52:18 55° NNE 04:56:07 10° ESE
STARLINK-1261 3.0 04:49:13 10° WSW 04:52:25 66° S 04:55:37 10° E
STARLINK-43 3.4 04:48:45 10° WNW 04:52:31 85° SSW 04:56:18 10° ESE
STARLINK-1375 3.4 04:48:55 10° WSW 04:52:38 67° S 04:56:21 10° E
STARLINK-1325 3.0 04:49:33 10° WSW 04:52:45 66° S 04:55:56 10° E
STARLINK-1333 3.0 04:49:56 10° WSW 04:53:08 66° S 04:56:19 10° E
STARLINK-1334 3.0 04:50:15 10° WSW 04:53:27 66° S 04:56:39 10° E
Cosmos 1461 3.5 04:49:52 10° SSW 04:53:37 34° SE 04:57:14 10° ENE
ADEOS 3.9 04:48:20 10° SSE 04:53:39 76° WSW 04:58:55 10° NNW
STARLINK-1326 3.0 04:50:36 10° WSW 04:53:48 66° S 04:56:59 10° E
Cosmos 1766 Rocket 4.2 04:49:28 10° NNW 04:53:55 62° WSW 04:58:28 10° S
COSMOS 2455 4.5 04:50:05 10° SW 04:54:06 18° S 04:58:07 10° SE
STARLINK-1323 3.0 04:50:54 10° WSW 04:54:06 66° S 04:57:18 10° E
USA 234 3.5 04:47:52 10° ESE 04:54:28 63° NE 05:01:00 10° NW
STARLINK-1349 3.0 04:51:17 10° WSW 04:54:29 66° S 04:57:41 10° E
STARLINK-1336 3.0 04:51:36 10° WSW 04:54:48 66° S 04:58:00 10° E
Cosmos 1538 Rocket 4.2 04:49:50 10° N 04:54:56 55° ENE 05:00:03 10° SSE
STARLINK-1350 3.3 04:51:18 10° WSW 04:55:00 68° S 04:58:41 10° E
STARLINK-1331 3.0 04:51:58 10° WSW 04:55:11 66° S 04:58:23 10° E
STARLINK-1344 3.0 04:52:20 10° WSW 04:55:32 66° S 04:58:44 10° E
COSMOS 2428 3.7 04:50:55 10° NNE 04:55:44 28° ENE 05:00:34 10° SE
STARLINK-1343 3.0 04:52:36 10° WSW 04:55:48 66° S 04:59:00 10° E
STARLINK-1346 2.9 04:53:02 10° WSW 04:56:12 66° S 04:59:21 10° E
STARLINK-1328 3.0 04:53:17 10° WSW 04:56:30 67° S 04:59:42 10° E
STARLINK-1354 3.0 04:53:37 10° WSW 04:56:49 67° S 05:00:01 10° E
STARLINK-1347 3.0 04:53:58 10° WSW 04:57:11 67° S 05:00:23 10° E
STARLINK-1357 3.0 04:54:19 10° WSW 04:57:31 67° S 05:00:43 10° E
STARLINK-1352 3.3 04:54:03 10° WSW 04:57:44 68° S 05:01:25 10° E
STARLINK-1335 3.0 04:54:42 10° WSW 04:57:54 67° S 05:01:06 10° E
STARLINK-1327 3.0 04:54:58 10° WSW 04:58:11 67° S 05:01:22 10° E
STARLINK-1340 3.0 04:55:19 10° WSW 04:58:31 67° S 05:01:43 10° E
Cosmos 1515 Rocket 3.8 04:54:04 10° SSW 04:58:35 81° W 05:03:04 10° N
STARLINK-1356 3.0 04:55:40 10° WSW 04:58:52 67° S 05:02:04 10° E
STARLINK-1345 3.0 04:55:59 10° WSW 04:59:12 68° S 05:02:24 10° E
STARLINK-1355 3.0 04:56:20 10° WSW 04:59:32 68° S 05:02:44 10° E
ADEOS Rocket 3.6 04:52:10 10° NNE 04:59:51 80° ESE 05:07:45 10° SSW
STARLINK-1321 2.9 04:56:41 10° WSW 04:59:54 68° S 05:03:06 10° E
STARLINK-1358 2.9 04:57:00 10° WSW 05:00:13 68° S 05:03:25 10° E
STARLINK-1368 3.3 04:56:48 10° WSW 05:00:29 69° S 05:04:10 10° E
STARLINK-1332 2.9 04:57:25 10° WSW 05:00:37 68° S 05:03:49 10° E
STARLINK-1348 2.9 04:57:42 10° WSW 05:00:55 68° S 05:04:06 10° E
STARLINK-1283 3.7 04:57:16 10° NW 05:01:05 63° NNE 05:04:52 10° ESE
STARLINK-60 4.2 04:57:56 10° WSW 05:01:07 45° NNW 05:04:16 10° NE
Meteor 1-31 Rocket 2.8 04:57:06 10° SSE 05:01:09 78° ENE 05:05:08 10° N
STARLINK-1330 2.9 04:58:01 10° WSW 05:01:13 68° S 05:04:25 10° E
ATLAS 5 CENTAUR R/B 4.3 04:58:14 10° NE 05:01:20 13° ENE 05:04:20 10° E
STARLINK-1363 2.9 04:58:25 10° WSW 05:01:38 68° S 05:04:49 10° E
STARLINK-1337 2.9 04:58:42 10° WSW 05:01:55 68° S 05:05:07 10° E
STARLINK-1342 2.9 04:59:02 10° WSW 05:02:15 69° S 05:05:27 10° E
STARLINK-1311 3.2 04:59:20 10° NW 05:02:20 56° NNE 05:05:12 11° ESE
STARLINK-1364 2.9 04:59:22 10° WSW 05:02:34 69° S 05:05:46 10° E
STARLINK-1376 2.9 04:59:44 10° WSW 05:02:57 69° S 05:06:08 10° E
STARLINK-1360 2.9 05:00:04 10° WSW 05:03:16 69° S 05:06:28 10° E
STARLINK-1369 3.3 04:59:34 10° WSW 05:03:16 70° S 05:06:57 10° E
STARLINK-1361 2.9 05:00:22 10° WSW 05:03:35 69° S 05:06:47 10° E
STARLINK-1367 2.9 05:00:45 10° WSW 05:03:55 69° S 05:07:05 10° E
STARLINK-1366 2.9 05:01:07 10° WSW 05:04:20 69° S 05:07:32 10° E
Cosmos 1943 Rocket 3.9 05:01:42 10° S 05:04:32 14° SSE 05:07:21 10° SE
CZ-4B R/B 4.4 05:01:30 10° SE 05:05:40 22° E 05:09:51 10° NE
Cosmos 2369 Rocket 4.1 05:03:09 10° S 05:05:45 13° SSE 05:08:21 10° SE
STARLINK-1372 3.3 05:02:21 10° WSW 05:06:03 70° S 05:09:45 10° E
Cosmos 1707 Rocket 4.4 05:03:12 10° S 05:07:11 30° ESE 05:11:06 10° NE
COSMO-SKYMED 1 2.6 05:02:49 10° NNE 05:07:13 81° ESE 05:11:41 10° SSW
Cosmos 1821 Rocket 4.0 05:01:15 10° N 05:07:24 82° E 05:13:42 10° SSE
Iridium 96 3.9 05:06:16 10° SSE 05:07:48 23° E 05:09:18 10° NE
STARLINK-42 3.1 05:05:05 10° WNW 05:08:20 74° NNE 05:11:15 13° ESE
STARLINK-1316 3.2 05:05:18 10° NW 05:08:27 58° NNE 05:11:15 13° ESE
Cosmos 2237 Rocket 3.8 05:05:27 10° NE 05:08:28 15° E 05:11:03 11° ESE
STARLINK-1378 3.3 05:05:24 10° WSW 05:09:08 71° S 05:12:51 10° E
STARLINK-1257 3.2 05:06:14 10° NW 05:09:23 59° NNE 05:12:08 13° ESE
STARLINK-1256 3.2 05:07:07 10° NW 05:10:16 59° NNE 05:13:00 13° ESE
SL-16 R/B 3.0 05:04:49 10° NW 05:10:21 49° SW 05:15:57 10° SSE
STARLINK-1213 3.2 05:08:02 10° NW 05:11:11 60° NNE 05:13:52 14° ESE
STARLINK-1329 3.3 05:07:40 10° WSW 05:11:24 72° S 05:15:02 10° E
Cosmos 1633 2.6 05:07:56 10° N 05:11:32 60° E 05:15:11 10° SSE
STARLINK-1379 3.3 05:07:57 10° WSW 05:11:39 72° S 05:15:16 11° E
STARLINK-1263 3.2 05:08:55 10° WNW 05:12:04 61° NNE 05:14:44 14° ESE
Cosmos 2228 Rocket 3.1 05:07:40 10° S 05:12:19 82° ESE 05:16:52 10° NNE
STARLINK-1259 3.2 05:09:48 10° WNW 05:12:58 62° NNE 05:15:35 14° ESE
STARLINK-1265 3.1 05:10:21 10° WNW 05:13:29 62° NNE 05:16:03 14° ESE
STARLINK-1285 3.1 05:10:42 10° WNW 05:13:52 62° NNE 05:16:27 14° ESE
STARLINK-1268 3.1 05:11:20 10° WNW 05:14:29 63° NNE 05:17:02 15° ESE
STARLINK-1362 3.3 05:10:51 10° WSW 05:14:37 73° S 05:18:11 11° E
STARLINK-1365 3.3 05:11:05 10° WSW 05:14:51 74° S 05:18:25 11° E
STARLINK-1296 3.1 05:12:31 10° WNW 05:15:41 64° NNE 05:18:13 15° ESE
ATLAS CENTAUR R/B 3.4 05:12:48 10° SSW 05:15:57 18° SSE 05:18:35 12° SE
Cosmos 1371 Rocket 4.4 05:11:16 10° SSW 05:16:31 45° ESE 05:21:41 10° NE
STARLINK-1260 3.1 05:13:25 10° WNW 05:16:36 65° NNE 05:19:04 15° ESE
STARLINK-1373 3.3 05:13:39 10° WSW 05:17:25 74° S 05:20:51 12° E
STARLINK-1318 3.1 05:14:20 10° WNW 05:17:30 65° NNE 05:19:57 16° ESE
STARLINK-1275 3.1 05:15:11 10° WNW 05:18:21 66° NNE 05:20:46 16° ESE
USA 32 4.3 05:13:03 10° N 05:18:22 78° W 05:23:43 10° S
STARLINK-1309 3.1 05:16:04 10° WNW 05:19:15 67° NNE 05:21:39 16° ESE
STARLINK-1390 3.3 05:16:20 10° WSW 05:20:04 75° S 05:23:22 13° E
STARLINK-1282 3.0 05:17:00 10° WNW 05:20:10 68° NNE 05:22:32 17° ESE
NOSS 3-4 (A) 4.5 05:13:11 10° SW 05:20:11 37° SSE 05:25:49 13° E
NOSS 3-4 (C) 4.5 05:13:17 10° SW 05:20:17 37° SSE 05:25:52 13° E
USA 116 4.4 05:15:38 10° NNE 05:20:30 61° ESE 05:25:48 10° S
STARLINK-1313 3.0 05:18:01 10° WNW 05:21:13 74° NNE 05:23:32 17° ESE
STARLINK-62 3.3 05:18:25 10° NW 05:21:37 56° NNE 05:23:57 17° E
Cosmos 1934 Rocket 4.1 05:15:44 10° N 05:22:02 68° E 05:28:28 10° SSE
STARLINK-1279 3.0 05:18:59 10° WNW 05:22:11 74° NNE 05:24:28 18° ESE
STARLINK-1298 3.0 05:19:40 10° WNW 05:22:52 70° NNE 05:25:07 18° ESE
STARLINK-1029 3.5 05:19:58 10° NW 05:23:04 46° NNE 05:25:14 17° E
STARLINK-34 3.3 05:20:21 10° NW 05:23:33 58° NNE 05:25:50 18° E
STARLINK-1293 3.0 05:20:37 10° WNW 05:23:48 71° NNE 05:26:02 18° ESE
Meteor 2-3 Rocket 4.1 05:18:29 10° NNW 05:24:17 73° WSW 05:30:13 10° S
STARLINK-1301 3.2 05:21:16 10° WNW 05:24:49 76° NNE 05:27:22 18° ESE
STARLINK-55 2.9 05:21:58 10° WNW 05:25:15 87° S 05:27:31 19° ESE
STARLINK-1255 3.0 05:22:24 10° WNW 05:25:36 72° NNE 05:27:44 19° ESE
Cosmos 405 3.1 05:22:03 10° S 05:25:36 54° ESE 05:29:05 10° NNE
STARLINK-1299 4.4 05:22:29 10° NW 05:26:34 42° NNE 05:29:38 16° E
Okean O Rocket 2.6 05:23:38 10° SE 05:27:27 27° E 05:31:14 10° NNE
Cosmos 1743 Rocket 3.7 05:23:27 10° NNW 05:27:54 83° W 05:32:26 10° S
H-2A R/B 3.9 05:25:18 13° SE 05:27:55 25° E 05:31:10 10° NNE
Cosmos 2333 Rocket 2.5 05:22:27 10° N 05:28:04 54° ENE 05:33:32 11° SE
STARLINK-1307 3.3 05:24:37 10° WNW 05:28:11 74° NNE 05:30:38 19° ESE
Meteor 1-10 Rocket 4.2 05:22:37 10° S 05:28:18 71° ESE 05:34:01 10° NNE
Cosmos 2278 Rocket 2.3 05:23:14 10° SSW 05:28:52 57° SE 05:34:29 10° NE
FENGYUN 3A 3.7 05:23:28 10° SSE 05:29:00 88° WSW 05:34:28 10° NNW
STARLINK-29 3.9 05:26:44 10° WSW 05:29:59 50° NNW 05:33:13 10° NE
Cosmos 1844 Rocket 4.2 05:25:03 10° SW 05:30:22 41° WNW 05:35:39 10° N
STARLINK-1290 3.2 05:27:21 10° WNW 05:30:55 76° NNE 05:33:15 20° ESE
Cosmos 1484 Rocket 3.4 05:27:18 10° S 05:31:10 57° WSW 05:34:55 10° NNW
Cosmos 1605 Rocket 4.1 05:26:52 10° NNE 05:32:54 55° E 05:38:56 10° SSE
METEOR-M 4.2 05:27:53 10° SSE 05:33:22 88° WSW 05:38:46 10° NNW
STARLINK-1297 3.2 05:30:00 10° WNW 05:33:34 78° NNE 05:35:48 21° ESE
STARLINK-26 3.1 05:30:31 10° WNW 05:34:03 82° SSW 05:36:13 22° ESE
SMAP 4.2 05:32:36 16° SE 05:35:03 23° E 05:38:45 10° NE
Sich 1 3.4 05:30:54 10° NNE 05:35:04 43° E 05:39:20 10° SSE
STARLINK-1310 4.4 05:31:20 10° NW 05:35:16 40° NNE 05:37:49 19° E
STARLINK-28 3.0 05:32:22 10° W 05:35:39 79° SSW 05:37:31 24° ESE
STARLINK-41 2.9 05:34:31 10° WNW 05:37:45 86° SSW 05:39:29 25° ESE
CZ-2C R/B 4.2 05:35:55 10° S 05:39:54 28° WSW 05:43:49 10° WNW
PSLV R/B 3.9 05:35:50 10° SSE 05:40:04 74° ENE 05:44:12 10° N
STARLINK-1319 4.3 05:36:14 10° NW 05:40:13 42° NNE 05:42:36 21° E
STARLINK-48 3.6 05:37:40 10° NW 05:41:35 64° NNE 05:43:52 24° E
Cosmos 2322 3.7 05:36:12 10° NNW 05:41:55 88° ENE 05:47:31 11° SSE
SJ-12 4.1 05:37:45 10° S 05:41:58 77° WSW 05:46:05 10° NNW
Cosmos 1346 Rocket 2.7 05:38:23 10° N 05:42:22 81° E 05:46:26 10° SSE
Cosmos 2360 Rocket 2.8 05:39:22 10° NW 05:44:59 56° SW 05:50:39 10° SSE
Cosmos 2056 Rocket 3.5 05:39:41 10° SSW 05:45:05 62° ESE 05:50:20 10° NE
STARLINK-1277 4.2 05:41:08 10° NW 05:45:09 45° NNE 05:47:22 23° E
ATLAS 2AS CENTAUR R/B 3.2 05:41:03 10° SW 05:47:01 39° SSE 05:51:07 20° E
CZ-4B R/B 3.9 05:45:02 10° S 05:49:15 51° WSW 05:53:34 10° NW
Meteor PRIRODA 4.3 05:45:36 10° S 05:49:17 56° WSW 05:52:56 10° NNW
STARLINK-1276 4.1 05:46:04 10° NW 05:50:08 48° NNE 05:52:09 26° E
STARLINK-1291 3.0 05:47:01 10° WNW 05:50:26 88° SSW 05:51:51 33° ESE
Cosmos 2333 4.3 05:44:47 10° NNW 05:50:37 86° WSW 05:56:06 12° SSE
NOAA 6 4.1 05:45:42 10° SSE 05:50:51 57° E 05:55:55 10° N
STARLINK-1317 3.2 05:47:57 10° WNW 05:51:34 86° SSW 05:53:10 32° ESE
STARLINK-1264 3.0 05:48:54 10° WNW 05:52:20 87° SSW 05:53:41 34° ESE
MOS 1-B 4.3 05:46:50 10° SSE 05:52:44 72° ENE 05:58:34 10° N
SJ-7 4.4 05:49:33 12° SSE 05:53:15 56° E 05:57:14 10° N
STARLINK-33 3.0 05:50:05 10° W 05:53:23 73° SSW 05:54:33 36° ESE
SL-24 R/B 4.3 05:48:24 10° NNE 05:53:23 77° E 05:58:19 10° S
Cosmos 1980 Rocket 4.4 05:50:49 10° WSW 05:54:15 16° SSW 05:57:41 10° S
STARLINK-1267 3.0 05:50:49 10° WNW 05:54:16 86° SSW 05:55:35 36° ESE
STARLINK-1305 4.0 05:51:01 10° NW 05:55:06 51° NNE 05:56:57 29° E
CZ-2C R/B 3.6 05:53:39 22° E 05:55:27 26° ESE 05:59:53 10° S
STARLINK-1272 3.0 05:52:43 10° WNW 05:56:10 85° SSW 05:57:24 37° ESE
STARLINK-64 3.4 05:53:59 10° WNW 05:57:34 63° NNE 05:58:52 36° E
STARLINK-1207 3.0 05:54:38 10° WNW 05:58:05 83° SSW 05:59:15 39° ESE
STARLINK-1278 3.9 05:54:34 10° NW 05:58:50 60° NNE 06:00:43 31° E
Cosmos 1818 4.3 05:54:04 10° N 05:58:52 33° ENE 06:00:42 26° E
Cosmos 1340 3.8 05:55:52 10° NW 05:59:32 44° WSW 06:03:16 10° S
STARLINK-1262 4.0 05:55:57 10° NW 06:00:03 54° NNE 06:01:44 32° E
STARLINK-1266 3.0 05:56:37 10° WNW 06:00:04 82° SSW 06:01:09 41° ESE
STARLINK-1280 3.9 05:56:24 10° NW 06:00:40 61° NNE 06:02:29 32° E
H-2A R/B 3.2 05:56:32 10° S 06:00:42 52° WSW 06:04:40 10° NW
Shenzhou-11 Module 4.3 05:59:45 10° NNW 06:00:47 12° N 06:01:12 11° NNE
Cosmos 1666 Rocket 3.6 05:57:14 10° N 06:01:31 54° E 06:04:56 16° SSE
YAOGAN 6 4.2 06:03:03 21° NE 06:03:03 21° NE 06:04:48 10° NNE
STARLINK-1284 3.1 05:58:36 10° WNW 06:02:03 81° SSW 06:03:04 43° ESE
STARLINK-66 3.0 05:58:48 10° W 06:02:05 69° S 06:02:55 45° ESE
ALOS 3.4 05:57:38 10° S 06:02:09 44° WSW 06:06:37 10° NW
BREEZE-M DEB (TANK) 4.2 05:59:00 10° W 06:02:36 48° NNW 06:14:28 10° NE
Cosmos 1633 Rocket 3.3 05:59:23 10° NNE 06:03:40 48° E 06:06:32 20° SSE
STARLINK-1258 3.1 06:00:31 10° WNW 06:03:59 80° SSW 06:04:55 46° ESE
STARLINK-1300 3.9 06:00:52 10° NW 06:04:59 57° NNE 06:06:29 35° E
STARLINK-1292 3.1 06:02:30 10° W 06:05:58 79° SSW 06:06:49 48° ESE
SeaSat 1 4.0 06:07:27 18° SSE 06:07:27 18° SSE 06:10:34 10° S
CZ-4B DEB 4.2 06:02:11 10° SSE 06:07:47 89° WSW 06:13:19 10° NNW
STARLINK-1274 3.1 06:04:31 10° W 06:07:59 78° SSW 06:08:46 50° ESE
Cosmos 2219 Rocket 2.2 06:02:43 10° NNW 06:08:27 88° WSW 06:13:00 17° SSE
STARLINK-1338 3.3 06:05:05 10° WSW 06:08:45 75° NNW 06:10:05 36° NE
Cosmos 2100 Rocket 4.2 06:03:52 10° NNE 06:09:42 44° E 06:15:33 10° SSE
STARLINK-1295 3.8 06:05:51 10° NW 06:10:00 60° NNE 06:11:18 39° E
Cosmos 1680 Rocket 3.4 06:04:42 10° NNW 06:10:00 79° ENE 06:13:59 18° SSE
STARLINK-1289 3.1 06:06:34 10° W 06:10:02 77° SSW 06:10:44 53° ESE
FALCON 9 DEB 4.2 06:07:33 10° WSW 06:10:56 43° NNW 06:12:54 21° NNE
STARLINK-1303 3.1 06:08:32 10° W 06:12:01 76° SSW 06:12:38 56° ESE
Cosmos 923 Rocket 4.1 06:07:29 10° NNW 06:12:52 80° WSW 06:17:28 15° SSE
STARLINK-75 3.0 06:09:55 10° W 06:13:11 67° S 06:13:34 60° SE
STARLINK-1312 3.1 06:10:32 10° W 06:14:01 75° SSW 06:14:34 58° SE
STARLINK-1371 3.4 06:10:33 10° WSW 06:14:13 71° NNW 06:15:21 41° NE
STARLINK-1287 3.7 06:10:46 10° NW 06:14:56 64° NNE 06:16:03 44° E
PAYLOAD B 4.2 06:09:25 10° SSE 06:15:03 89° ENE 06:20:37 10° NNW
Cosmos 1452 Rocket 3.8 06:10:20 10° SSW 06:15:28 45° ESE 06:17:29 31° ENE
Cosmos 1862 3.8 06:11:53 10° NNW 06:15:55 63° WSW 06:20:01 10° S
STARLINK-1341 3.5 06:13:17 10° WSW 06:16:58 69° NNW 06:18:03 42° NE
Cosmos 1420 Rocket 4.0 06:13:33 10° SSW 06:18:56 64° ESE 06:24:07 11° NE
STARLINK-1374 3.5 06:15:52 10° WSW 06:19:32 67° NNW 06:20:30 44° NE
STARLINK-58 2.8 06:16:35 10° W 06:19:51 79° SSW 06:19:58 76° SSE
Cosmos 1153 Rocket 4.4 06:13:51 10° N 06:20:01 77° E 06:26:16 10° SSE
CZ-4C R/B 3.7 06:16:16 10° WSW 06:22:07 28° S 06:24:38 21° SSE
STARLINK-1339 3.5 06:18:36 10° WSW 06:22:16 65° NNW 06:23:09 46° NE
STARLINK-22 3.0 06:19:30 10° W 06:22:48 68° S 06:22:50 68° S
Cosmos 1980 3.8 06:18:01 10° N 06:23:33 54° ENE 06:25:39 35° SE
STARLINK 1040 3.7 06:21:22 10° WSW 06:23:16 38° SW 06:23:16 38° SW
Envisat 3.0 06:21:20 23° SSE 06:24:25 56° E 06:29:27 10° N
STARLINK-1377 3.6 06:20:48 10° WSW 06:24:26 63° NNW 06:25:11 49° NNE
STARLINK-1302 3.6 06:20:42 10° WNW 06:24:53 70° NNE 06:25:38 56° E
Cosmos 1805 Rocket 4.5 06:21:02 10° NNW 06:25:20 50° WSW 06:29:44 10° S
Cosmos 2322 Rocket 4.1 06:21:24 10° W 06:25:58 23° SW 06:30:33 10° SSE
Cosmos 2061 Rocket 4.4 06:20:48 10° NNE 06:26:32 39° E 06:28:12 33° SE
Cosmos 1238 Rocket 2.6 06:22:17 10° N 06:26:37 71° E 06:27:18 56° SE
STARLINK-1320 3.5 06:23:46 10° WSW 06:26:54 50° NNW 06:27:10 49° N
STARLINK-1353 3.6 06:23:29 10° WSW 06:27:07 61° NNW 06:27:46 50° NNE
STARLINK-1322 3.5 06:24:06 10° WSW 06:27:13 50° NNW 06:27:28 49° N
STARLINK-1324 3.5 06:24:27 10° WSW 06:27:34 50° NNW 06:27:48 49° N
Cosmos 1812 4.0 06:24:05 10° SSW 06:27:50 42° W 06:31:32 10° NNW
STARLINK-1294 3.5 06:24:48 10° WSW 06:27:54 49° NNW 06:28:05 49° NNW
STARLINK-1261 3.6 06:25:07 10° WSW 06:28:14 50° NNW 06:28:26 48° NNW
STARLINK-1325 3.6 06:25:26 10° WSW 06:28:33 49° NNW 06:28:45 48° NNW
Cosmos 2297 3.8 06:23:22 10° SSW 06:28:57 52° SE 06:30:33 40° E
STARLINK-1333 3.6 06:25:49 10° WSW 06:28:57 49° NNW 06:29:07 48° NNW
STARLINK-1334 3.6 06:26:08 10° WSW 06:29:16 49° NNW 06:29:26 48° NNW
STARLINK-1326 3.6 06:26:29 10° WSW 06:29:36 48° NNW 06:29:45 48° NNW
STARLINK-1273 3.6 06:25:40 10° WNW 06:29:52 74° NNE 06:30:25 62° ENE
STARLINK-1323 3.6 06:26:48 10° WSW 06:29:55 48° NNW 06:30:04 48° NNW
STARLINK-1349 3.6 06:27:11 10° WSW 06:30:17 48° NNW 06:30:25 48° NNW
STARLINK-1375 3.7 06:26:38 10° WSW 06:30:18 59° NNW 06:30:53 51° NNE
MOS 1 Rocket 3.8 06:31:08 40° SE 06:31:08 40° SE 06:34:58 10° S
STARLINK-43 3.3 06:26:47 10° WSW 06:30:31 67° S 06:30:36 67° SSE
STARLINK-80 3.4 06:26:42 10° W 06:30:34 70° S 06:30:50 66° SSE
STARLINK-1336 3.6 06:27:29 10° WSW 06:30:36 48° NNW 06:30:43 48° NNW
STARLINK-1331 3.6 06:27:53 10° WSW 06:30:59 48° NNW 06:31:05 47° NNW
STARLINK-1344 3.7 06:28:13 10° WSW 06:31:20 47° NNW 06:31:25 47° NNW
STARLINK-1343 3.7 06:28:30 10° WSW 06:31:36 47° NNW 06:31:41 47° NNW
Helios 1A Rocket 4.0 06:33:10 31° NNE 06:33:10 31° NNE 06:35:33 10° N
STARLINK-1346 3.7 06:28:55 10° WSW 06:31:59 46° NNW 06:32:01 46° NNW
NOSS 0 Rocket 3.9 06:26:01 10° NNW 06:32:15 71° ENE 06:35:22 31° SE
STARLINK-1328 3.7 06:29:11 10° WSW 06:32:18 47° NNW 06:32:21 47° NNW
STARLINK-1350 3.7 06:28:54 10° WSW 06:32:31 57° NNW 06:32:59 52° N
STARLINK-1354 3.7 06:29:31 10° WSW 06:32:37 46° NNW 06:32:39 46° NNW
Cosmos 1461 4.0 06:28:59 10° SW 06:32:46 40° WNW 06:36:26 10° NNE
STARLINK-1347 3.7 06:29:52 10° WSW 06:32:59 46° NNW 06:33:01 46° NNW
STARLINK-1357 3.7 06:30:12 10° WSW 06:33:18 46° NNW 06:33:19 46° NNW
STARLINK-1335 3.8 06:30:36 10° WSW 06:33:42 46° NNW 06:33:42 46° NNW
STARLINK-1327 3.8 06:30:52 10° WSW 06:33:58 46° NNW 06:33:58 46° NNW
STARLINK-1340 3.8 06:31:12 10° WSW 06:34:17 45° NNW 06:34:17 45° NNW
Meteor 1-27 Rocket 4.3 06:28:29 10° SSW 06:34:19 62° W 06:40:10 10° N
STARLINK-1356 3.8 06:31:34 10° WSW 06:34:37 45° NNW 06:34:37 45° NNW
STARLINK-1288 3.5 06:30:36 10° WNW 06:34:49 77° NNE 06:35:11 70° ENE
STARLINK-1345 3.8 06:31:54 10° WSW 06:34:57 45° NNW 06:34:57 45° NNW
STARLINK-1352 3.7 06:31:39 10° WSW 06:35:15 55° NNW 06:35:37 52° N
STARLINK-1355 3.8 06:32:14 10° WSW 06:35:16 45° NNW 06:35:16 45° NNW
STARLINK-1321 3.8 06:32:36 10° WSW 06:35:37 44° NNW 06:35:37 44° NNW
STARLINK-54 4.5 06:32:07 10° NNW 06:35:11 34° NNE 06:35:11 34° NNE
STARLINK-1358 3.9 06:32:54 10° WSW 06:35:55 44° NNW 06:35:55 44° NNW
CZ-2C R/B 4.1 06:36:46 48° SE 06:36:46 48° SE 06:40:56 10° S
STARLINK-1332 3.9 06:33:19 10° WSW 06:36:18 44° NW 06:36:18 44° NW
STARLINK-1348 3.9 06:33:36 10° WSW 06:36:35 44° NW 06:36:35 44° NW
STARLINK-1330 3.9 06:33:55 10° WSW 06:36:53 43° NW 06:36:53 43° NW
Cosmos 2016 Rocket 4.2 06:31:04 10° NNE 06:37:01 46° E 06:39:15 33° SE
STARLINK-1363 3.9 06:34:20 10° WSW 06:37:17 43° NW 06:37:17 43° NW
USA 234 3.4 06:34:22 33° SE 06:37:32 68° SSW 06:44:05 10° W
STARLINK-1337 3.9 06:34:37 10° WSW 06:37:33 43° NW 06:37:33 43° NW
STARLINK-1311 4.0 06:34:40 10° W 06:36:54 41° WSW 06:36:54 41° WSW
STARLINK-1368 3.8 06:34:24 10° WSW 06:38:00 53° NNW 06:38:16 52° N
STARLINK-1342 3.9 06:34:57 10° WSW 06:37:52 43° NW 06:37:52 43° NW
STARLINK-1364 4.0 06:35:16 10° WSW 06:38:11 42° NW 06:38:11 42° NW
STARLINK-1376 4.0 06:35:38 10° WSW 06:38:32 42° NW 06:38:32 42° NW
Cosmos 2173 Rocket 3.9 06:32:34 10° N 06:38:47 65° E 06:44:59 10° SSE
STARLINK-1360 4.0 06:35:58 10° WSW 06:38:50 42° NW 06:38:50 42° NW
STARLINK-1283 3.5 06:35:29 10° W 06:39:14 67° SSW 06:39:14 67° SSW
STARLINK-1361 4.0 06:36:16 10° WSW 06:39:09 41° NW 06:39:09 41° NW
COSMOS 2428 3.1 06:33:54 10° NW 06:39:37 62° SW 06:43:22 22° SSE
STARLINK-1367 4.1 06:36:39 10° W 06:39:26 40° NW 06:39:26 40° NW
STARLINK-1308 3.5 06:35:37 10° WNW 06:39:50 81° NNE 06:40:00 78° ENE
STARLINK-1366 4.1 06:37:02 10° WSW 06:39:52 41° NW 06:39:52 41° NW
STARLINK-1369 3.8 06:37:12 10° WSW 06:40:47 52° NNW 06:40:57 51° NNW
COSMOS 2455 3.9 06:36:53 10° SSW 06:42:03 29° SSE 06:42:03 29° SSE
Lacrosse 5 rocket 3.5 06:38:53 10° N 06:40:19 17° NNE 06:40:19 17° NNE
Cosmos 2242 Rocket 3.8 06:38:11 10° S 06:42:03 54° SSE 06:42:03 54° SSE
STARLINK-1372 3.9 06:40:00 10° WSW 06:43:34 50° NNW 06:43:39 50° NNW
DMSP B5D2-2 4.0 06:42:44 50° ENE 06:43:41 59° ESE 06:48:53 10° S
STARLINK-1316 4.2 06:41:07 10° W 06:43:24 40° WSW 06:43:24 40° WSW
STARLINK-42 4.1 06:41:17 10° W 06:43:39 41° WSW 06:43:39 41° WSW
ATLAS 5 CENTAUR R/B 2.8 06:38:08 10° NNW 06:45:02 54° NE 06:46:25 46° E
STARLINK-1257 4.2 06:42:03 10° W 06:44:17 39° WSW 06:44:17 39° WSW
STARLINK-61 3.7 06:41:44 10° WNW 06:45:19 65° NNW 06:45:19 65° NNW
Cosmos 1459 Rocket 3.9 06:39:42 10° N 06:45:55 72° E 06:52:19 10° SSE
STARLINK-1256 4.3 06:42:57 10° W 06:45:09 38° WSW 06:45:09 38° WSW
STARLINK-1378 4.0 06:43:08 10° WSW 06:46:44 48° NNW 06:46:44 48° NNW
CZ-4B R/B 3.4 06:41:17 10° SSE 06:46:45 71° WSW 06:52:15 10° NNW
STARLINK-1213 4.3 06:43:52 10° W 06:46:01 37° WSW 06:46:01 37° WSW
Cosmos 371 Rocket 3.1 06:42:11 10° SSW 06:47:06 75° ESE 06:47:37 67° ENE
STARLINK-1263 4.4 06:44:45 10° W 06:46:53 36° WSW 06:46:53 36° WSW
STARLINK-1259 4.4 06:45:39 10° W 06:47:44 36° WSW 06:47:44 36° WSW
STARLINK-1329 4.1 06:45:23 10° WSW 06:48:51 46° NW 06:48:51 46° NW
STARLINK-1379 4.1 06:45:38 10° WSW 06:49:03 46° NW 06:49:03 46° NW
STARLINK-1285 4.5 06:46:33 10° W 06:48:36 35° WSW 06:48:36 35° WSW
STARLINK-1304 3.6 06:45:33 10° WNW 06:49:33 80° NW 06:49:33 80° NW
Cosmos 1943 Rocket 2.9 06:44:44 10° SSW 06:48:58 35° SSE 06:48:58 35° SSE
CORIOLIS 4.0 06:47:23 32° SSE 06:50:04 76° ENE 06:55:33 10° N
Gblst 52 Del rocket 4.3 06:43:49 10° W 06:50:31 89° S 06:51:55 56° E
Cosmos 1470 Rocket 3.5 06:46:12 10° N 06:50:24 73° NNE 06:50:24 73° NNE
Cosmos 2237 Rocket 2.1 06:45:54 10° NNW 06:51:35 78° ENE 06:52:55 54° SE
Cosmos 2369 Rocket 3.2 06:46:31 10° SSW 06:50:30 30° SSE 06:50:30 30° SSE
STARLINK-1286 3.7 06:47:55 10° WNW 06:51:54 78° WNW 06:51:54 78° WNW
STARLINK-1362 4.2 06:48:43 10° WSW 06:52:10 45° NW 06:52:10 45° NW
STARLINK-1365 4.3 06:48:55 10° WSW 06:52:21 43° NW 06:52:21 43° NW
STARLINK-1373 4.4 06:51:27 10° WSW 06:54:45 42° NW 06:54:45 42° NW
NOAA 12 4.0 06:53:40 45° SSE 06:55:23 80° ENE 07:00:42 10° NNW
SL-16 R/B 4.5 06:52:22 10° WSW 06:55:56 16° SSW 06:59:16 11° S
ATLAS CENTAUR R/B 2.8 06:51:40 10° SSW 06:54:47 32° S 06:54:47 32° S
AQUARIUS 4.2 06:56:20 56° S 06:57:15 79° WSW 07:01:47 10° NNW
STARLINK-1390 4.5 06:54:07 10° WSW 06:57:14 40° NW 06:57:14 40° NW
Cosmos 1862 Rocket 4.4 06:54:46 10° SSW 06:59:13 51° W 07:03:36 10° N
H-2A R/B 4.3 07:00:25 23° SSW 07:02:11 35° WSW 07:05:46 10° NW
Okean O Rocket 2.8 07:01:06 19° S 07:03:57 42° WSW 07:08:10 10° NW
STARLINK-1299 4.2 07:02:07 10° W 07:05:42 59° W 07:05:42 59° W
STARLINK-1306 4.2 07:02:25 10° WNW 07:05:52 57° W 07:05:52 57° W
SL-16 R/B 3.6 07:01:56 10° N 07:04:24 25° NNE 07:04:24 25° NNE
IRS-1C Rocket 4.1 07:09:07 67° NNE 07:09:07 67° NNE 07:13:45 10° NNW
STARLINK-1281 4.4 07:05:28 10° WNW 07:08:41 51° W 07:08:41 51° W
BREEZE M DEB (TANK) 4.4 06:43:55 10° W 07:10:44 73° NNW 07:13:12 46° NE
NOSS 3-4 (A) 3.6 07:04:50 10° SW 07:12:14 79° SE 07:13:17 65° ENE
NOSS 3-4 (C) 3.5 07:04:56 10° SW 07:12:20 79° SE 07:13:20 66° ENE
Cosmos 2333 Rocket 3.5 07:07:16 10° WNW 07:12:36 37° SW 07:15:33 23° S
Cosmos 1802 Rocket 4.0 07:06:09 10° N 07:12:39 89° E 07:19:10 10° S
Cosmos 2278 Rocket 4.0 07:07:46 10° SW 07:12:40 30° WNW 07:17:33 10° NNW
SMAP 3.7 07:11:04 36° SSW 07:12:43 54° WSW 07:17:19 10° NW
Cosmos 2346 Rocket 4.3 07:07:57 10° S 07:14:10 87° W 07:20:16 10° N
Cosmos 1725 Rocket 4.2 07:08:59 10° N 07:13:48 52° NNE 07:13:48 52° NNE
NOSS 3-3 (A) 4.3 07:15:33 10° NW 07:23:48 83° NE 07:25:06 65° ESE
NOSS 3-3 (C) 4.3 07:15:40 10° NW 07:23:54 82° NE 07:25:09 66° ESE
Cosmos 2360 Rocket 4.4 07:26:30 10° WSW 07:30:18 18° SSW 07:32:43 14° S
Tsikada Rocket 4.0 07:26:25 10° S 07:32:57 84° W 07:33:31 75° NNW
CZ-2C R/B 3.0 07:35:11 63° WNW 07:35:23 63° WNW 07:40:48 10° SSW
ATLAS 2AS CENTAUR R/B 2.6 07:31:55 10° SW 07:38:30 82° NW 07:38:35 82° NW
Cosmos 1818 4.2 07:36:52 10° WNW 07:41:22 52° W 07:41:22 52° W
SeaSat 1 4.4 07:47:14 22° SSW 07:47:14 22° SSW 07:48:57 10° SSW
Cosmos 2219 Rocket 4.1 07:48:38 10° W 07:53:14 24° SW 07:54:44 22° SSW
CZ-4C R/B 4.0 08:06:32 10° SW 08:09:48 25° SSW 08:09:48 25° SSW
USA 234 4.1 08:21:43 45° SW 08:21:43 45° SW 08:26:35 10° WSW
ATLAS 5 CENTAUR R/B 3.7 08:23:08 10° WNW 08:27:59 41° W 08:27:59 41° W
Cosmos 1943 Rocket 4.3 08:28:32 10° SW 08:30:31 22° SW 08:30:31 22° SW
Cosmos 2369 Rocket 4.3 08:30:26 10° SW 08:32:18 21° SW 08:32:18 21° SW
Cosmos 2237 Rocket 4.2 08:31:28 10° W 08:34:47 24° WSW 08:34:47 24° WSW
